Time,TemperatureF,DewpointF,PressureIn,WindDirection,WindDirectionDegrees,WindSpeedMPH,WindSpeedGustMPH,Humidity,HourlyPrecipIn,Conditions,Clouds,dailyrainin,SoftwareType,DateUTC
2013-03-26 00:00:00,46.5,46.0,29.95,SSE,167,0.0,11.0,97,0.00,,,0.00,,2013-03-26 07:00:00,
2013-03-26 00:10:00,46.8,46.0,29.96,SW,232,6.0,8.0,97,0.00,,,0.00,,2013-03-26 07:10:00,
2013-03-26 00:20:00,47.0,46.0,29.96,SSW,194,2.0,6.0,97,0.00,,,0.00,,2013-03-26 07:20:00,
2013-03-26 00:30:00,46.9,46.0,29.96,SSE,155,6.0,7.0,97,0.00,,,0.00,,2013-03-26 07:30:00,
2013-03-26 00:40:00,46.8,46.0,29.95,East,88,6.0,7.0,97,0.00,,,0.00,,2013-03-26 07:40:00,
2013-03-26 00:50:00,45.4,45.0,29.95,East,98,7.0,8.0,97,0.00,,,0.00,,2013-03-26 07:50:00,
2013-03-26 01:00:00,45.1,44.0,29.95,ESE,102,7.0,8.0,97,0.00,,,0.00,,2013-03-26 08:00:00,
2013-03-26 01:10:00,45.6,45.0,29.95,ESE,122,8.0,9.0,98,0.00,,,0.00,,2013-03-26 08:10:00,
2013-03-26 01:20:00,45.8,45.0,29.95,SSE,155,5.0,10.0,98,0.00,,,0.00,,2013-03-26 08:20:00,
2013-03-26 01:30:00,45.9,45.0,29.95,SSE,150,7.0,7.0,98,0.00,,,0.00,,2013-03-26 08:30:00,
2013-03-26 01:40:00,45.8,45.0,29.95,SE,134,7.0,8.0,98,0.00,,,0.00,,2013-03-26 08:40:00,
2013-03-26 01:50:00,45.6,45.0,29.95,SE,138,3.0,6.0,98,0.00,,,0.00,,2013-03-26 08:50:00,
2013-03-26 02:00:00,45.6,45.0,29.95,SSE,152,4.0,4.0,98,0.00,,,0.00,,2013-03-26 09:00:00,
2013-03-26 02:10:00,45.8,45.0,29.95,SSE,152,0.0,3.0,98,0.00,,,0.00,,2013-03-26 09:10:00,
2013-03-26 02:20:00,46.1,46.0,29.96,SSE,152,3.0,3.0,98,0.00,,,0.00,,2013-03-26 09:20:00,
2013-03-26 02:30:00,46.3,46.0,29.96,SSE,152,1.0,4.0,98,0.00,,,0.00,,2013-03-26 09:30:00,
2013-03-26 02:40:00,46.3,46.0,29.95,SSE,152,0.0,3.0,98,0.00,,,0.00,,2013-03-26 09:40:00,
2013-03-26 02:50:00,46.4,46.0,29.95,SSE,152,0.0,0.0,98,0.00,,,0.00,,2013-03-26 09:50:00,
2013-03-26 03:00:00,46.4,46.0,29.94,SSE,152,0.0,1.0,98,0.00,,,0.00,,2013-03-26 10:00:00,
2013-03-26 03:10:00,46.4,46.0,29.93,SSE,152,0.0,1.0,98,0.00,,,0.00,,2013-03-26 10:10:00,
2013-03-26 03:20:00,46.4,46.0,29.93,SSE,152,1.0,3.0,98,0.00,,,0.00,,2013-03-26 10:20:00,
2013-03-26 03:30:00,46.4,46.0,29.92,SSE,163,5.0,7.0,98,0.00,,,0.00,,2013-03-26 10:30:00,
2013-03-26 03:40:00,46.1,46.0,29.93,South,169,2.0,5.0,98,0.00,,,0.00,,2013-03-26 10:40:00,
2013-03-26 03:50:00,46.0,45.0,29.93,SSW,194,4.0,8.0,98,0.00,,,0.00,,2013-03-26 10:50:00,
2013-03-26 04:00:00,46.1,46.0,29.94,SSW,194,3.0,4.0,98,0.00,,,0.00,,2013-03-26 11:00:00,
2013-03-26 04:10:00,45.9,45.0,29.94,SSW,194,3.0,4.0,98,0.00,,,0.00,,2013-03-26 11:10:00,
2013-03-26 04:20:00,45.0,44.0,29.94,NE,55,3.0,4.0,98,0.00,,,0.00,,2013-03-26 11:20:00,
2013-03-26 04:30:00,45.0,44.0,29.93,ENE,57,3.0,7.0,98,0.00,,,0.00,,2013-03-26 11:30:00,
2013-03-26 04:40:00,45.1,45.0,29.93,ENE,57,0.0,2.0,98,0.00,,,0.00,,2013-03-26 11:40:00,
2013-03-26 04:50:00,45.1,45.0,29.93,ENE,57,2.0,2.0,98,0.00,,,0.00,,2013-03-26 11:50:00,
2013-03-26 05:00:00,45.2,45.0,29.93,ENE,57,0.0,1.0,98,0.00,,,0.00,,2013-03-26 12:00:00,
2013-03-26 05:10:00,45.6,45.0,29.93,ENE,57,0.0,1.0,98,0.00,,,0.00,,2013-03-26 12:10:00,
2013-03-26 05:20:00,45.8,45.0,29.94,ENE,57,0.0,2.0,98,0.00,,,0.00,,2013-03-26 12:20:00,
2013-03-26 05:30:00,45.7,45.0,29.93,ENE,57,0.0,0.0,98,0.00,,,0.00,,2013-03-26 12:30:00,
2013-03-26 05:40:00,45.4,45.0,29.93,ENE,57,1.0,3.0,98,0.00,,,0.00,,2013-03-26 12:40:00,
2013-03-26 05:50:00,45.2,45.0,29.93,ENE,57,0.0,1.0,98,0.00,,,0.00,,2013-03-26 12:50:00,
2013-03-26 06:00:00,45.2,45.0,29.93,ENE,57,0.0,0.0,98,0.00,,,0.00,,2013-03-26 13:00:00,
2013-03-26 06:10:00,45.2,45.0,29.93,ENE,57,0.0,0.0,98,0.00,,,0.00,,2013-03-26 13:10:00,
2013-03-26 06:20:00,45.2,45.0,29.93,ENE,57,1.0,3.0,98,0.00,,,0.00,,2013-03-26 13:20:00,
2013-03-26 06:30:00,45.1,45.0,29.94,WNW,294,4.0,4.0,98,0.00,,,0.00,,2013-03-26 13:30:00,
2013-03-26 06:40:00,45.1,45.0,29.94,WNW,296,1.0,3.0,98,0.00,,,0.00,,2013-03-26 13:40:00,
2013-03-26 06:50:00,45.1,45.0,29.94,NW,322,1.0,4.0,98,0.00,,,0.00,,2013-03-26 13:50:00,
2013-03-26 07:00:00,45.1,45.0,29.94,NW,322,0.0,5.0,98,0.00,,,0.00,,2013-03-26 14:00:00,
2013-03-26 07:10:00,45.1,45.0,29.94,NW,322,0.0,1.0,98,0.00,,,0.00,,2013-03-26 14:10:00,
2013-03-26 07:20:00,45.2,45.0,29.94,ENE,74,4.0,4.0,98,0.00,,,0.00,,2013-03-26 14:20:00,
2013-03-26 07:30:00,45.2,45.0,29.94,East,80,6.0,8.0,98,0.00,,,0.00,,2013-03-26 14:30:00,
2013-03-26 07:40:00,45.2,45.0,29.94,East,95,3.0,7.0,98,0.00,,,0.00,,2013-03-26 14:40:00,
2013-03-26 07:50:00,45.2,45.0,29.94,East,95,1.0,3.0,98,0.00,,,0.00,,2013-03-26 14:50:00,
2013-03-26 08:00:00,45.2,45.0,29.94,East,95,2.0,5.0,98,0.00,,,0.00,,2013-03-26 15:00:00,
2013-03-26 08:10:00,45.2,45.0,29.94,East,95,1.0,3.0,98,0.00,,,0.00,,2013-03-26 15:10:00,
2013-03-26 08:20:00,45.7,45.0,29.95,East,95,1.0,3.0,98,0.00,,,0.00,,2013-03-26 15:20:00,
2013-03-26 08:30:00,45.5,45.0,29.95,SE,136,0.0,3.0,98,0.00,,,0.00,,2013-03-26 15:30:00,
2013-03-26 08:40:00,45.9,45.0,29.95,SSE,155,2.0,5.0,98,0.00,,,0.00,,2013-03-26 15:40:00,
2013-03-26 08:50:00,46.0,45.0,29.96,WSW,244,3.0,4.0,98,0.00,,,0.00,,2013-03-26 15:50:00,
2013-03-26 09:00:00,46.4,46.0,29.96,WSW,251,2.0,5.0,98,0.00,,,0.00,,2013-03-26 16:00:00,
2013-03-26 09:10:00,46.3,46.0,29.96,WSW,249,0.0,5.0,97,0.00,,,0.00,,2013-03-26 16:10:00,
2013-03-26 09:20:00,46.9,46.0,29.96,WSW,249,5.0,5.0,97,0.00,,,0.00,,2013-03-26 16:20:00,
2013-03-26 09:30:00,46.8,46.0,29.96,WSW,239,3.0,6.0,96,0.00,,,0.00,,2013-03-26 16:30:00,
2013-03-26 09:40:00,46.8,46.0,29.97,WSW,250,6.0,8.0,96,0.00,,,0.00,,2013-03-26 16:40:00,
2013-03-26 09:50:00,47.1,46.0,29.97,West,265,5.0,8.0,95,0.00,,,0.00,,2013-03-26 16:50:00,
2013-03-26 10:00:00,47.6,46.0,29.97,WNW,289,5.0,9.0,95,0.00,,,0.00,,2013-03-26 17:00:00,
2013-03-26 10:10:00,48.6,47.0,29.97,West,272,0.0,8.0,94,0.00,,,0.00,,2013-03-26 17:10:00,
2013-03-26 10:20:00,48.8,47.0,29.97,WSW,249,4.0,10.0,93,0.00,,,0.00,,2013-03-26 17:20:00,
2013-03-26 10:30:00,48.8,47.0,29.97,WSW,246,6.0,9.0,92,0.00,,,0.00,,2013-03-26 17:30:00,
2013-03-26 10:40:00,49.2,47.0,29.98,SW,234,7.0,8.0,91,0.00,,,0.00,,2013-03-26 17:40:00,
2013-03-26 10:50:00,49.8,47.0,29.98,West,265,0.0,8.0,90,0.00,,,0.00,,2013-03-26 17:50:00,
2013-03-26 11:00:00,50.7,48.0,29.97,SW,225,2.0,6.0,89,0.00,,,0.00,,2013-03-26 18:00:00,
2013-03-26 11:10:00,50.5,47.0,29.97,SW,229,5.0,8.0,88,0.00,,,0.00,,2013-03-26 18:10:00,
2013-03-26 11:20:00,51.1,48.0,29.97,SW,236,10.0,10.0,88,0.00,,,0.00,,2013-03-26 18:20:00,
2013-03-26 11:30:00,50.6,47.0,29.97,SW,236,8.0,10.0,87,0.00,,,0.00,,2013-03-26 18:30:00,
2013-03-26 11:40:00,50.2,47.0,29.98,SW,232,9.0,13.0,90,0.00,,,0.00,,2013-03-26 18:40:00,
2013-03-26 11:50:00,49.6,47.0,29.98,WSW,239,9.0,13.0,90,0.00,,,0.00,,2013-03-26 18:50:00,
2013-03-26 12:00:00,50.0,47.0,29.97,SW,236,10.0,13.0,90,0.00,,,0.00,,2013-03-26 19:00:00,
2013-03-26 12:10:00,50.2,47.0,29.97,WSW,252,11.0,12.0,90,0.00,,,0.00,,2013-03-26 19:10:00,
2013-03-26 12:20:00,50.3,48.0,29.97,WSW,250,10.0,12.0,91,0.00,,,0.00,,2013-03-26 19:20:00,
2013-03-26 12:30:00,51.2,49.0,29.97,WSW,256,10.0,12.0,91,0.00,,,0.00,,2013-03-26 19:30:00,
2013-03-26 12:40:00,51.0,48.0,29.96,SW,234,10.0,12.0,89,0.00,,,0.00,,2013-03-26 19:40:00,
2013-03-26 12:50:00,50.6,47.0,29.96,WSW,247,12.0,15.0,88,0.00,,,0.00,,2013-03-26 19:50:00,
2013-03-26 13:00:00,49.9,47.0,29.96,WSW,248,14.0,15.0,90,0.00,,,0.00,,2013-03-26 20:00:00,
2013-03-26 13:10:00,49.6,47.0,29.96,WSW,246,13.0,18.0,90,0.00,,,0.00,,2013-03-26 20:10:00,
2013-03-26 13:20:00,49.6,47.0,29.96,West,265,13.0,18.0,91,0.00,,,0.00,,2013-03-26 20:20:00,
2013-03-26 13:30:00,50.3,48.0,29.96,WSW,258,13.0,17.0,92,0.00,,,0.00,,2013-03-26 20:30:00,
2013-03-26 13:40:00,50.6,48.0,29.96,WSW,247,13.0,17.0,91,0.00,,,0.00,,2013-03-26 20:40:00,
2013-03-26 13:50:00,50.8,48.0,29.95,WSW,256,13.0,17.0,91,0.00,,,0.00,,2013-03-26 20:50:00,
2013-03-26 14:00:00,51.1,49.0,29.95,West,261,13.0,18.0,91,0.00,,,0.00,,2013-03-26 21:00:00,
2013-03-26 14:10:00,51.4,49.0,29.95,West,266,15.0,17.0,90,0.00,,,0.00,,2013-03-26 21:10:00,
2013-03-26 14:20:00,52.0,49.0,29.94,West,274,12.0,16.0,89,0.00,,,0.00,,2013-03-26 21:20:00,
2013-03-26 14:30:00,52.7,49.0,29.94,West,273,10.0,13.0,86,0.00,,,0.00,,2013-03-26 21:30:00,
2013-03-26 14:40:00,52.5,49.0,29.94,West,273,9.0,14.0,88,0.00,,,0.00,,2013-03-26 21:40:00,
2013-03-26 14:50:00,53.2,49.0,29.93,West,262,10.0,12.0,86,0.00,,,0.00,,2013-03-26 21:50:00,
2013-03-26 15:00:00,53.2,49.0,29.93,WSW,250,8.0,11.0,87,0.00,,,0.00,,2013-03-26 22:00:00,
2013-03-26 15:10:00,52.6,49.0,29.93,West,262,14.0,14.0,86,0.00,,,0.00,,2013-03-26 22:10:00,
2013-03-26 15:20:00,51.2,48.0,29.93,WSW,250,8.0,16.0,90,0.00,,,0.00,,2013-03-26 22:20:00,
2013-03-26 15:30:00,51.0,48.0,29.93,WSW,252,13.0,16.0,89,0.00,,,0.00,,2013-03-26 22:30:00,
2013-03-26 15:40:00,51.7,49.0,29.93,WSW,254,14.0,15.0,89,0.00,,,0.00,,2013-03-26 22:40:00,
2013-03-26 15:50:00,52.3,48.0,29.92,WSW,257,10.0,13.0,86,0.00,,,0.00,,2013-03-26 22:50:00,
2013-03-26 16:00:00,52.1,48.0,29.92,WSW,252,8.0,13.0,86,0.00,,,0.00,,2013-03-26 23:00:00,
2013-03-26 16:10:00,52.8,48.0,29.92,WSW,248,10.0,10.0,84,0.00,,,0.00,,2013-03-26 23:10:00,
2013-03-26 16:20:00,52.7,48.0,29.92,West,259,7.0,12.0,83,0.00,,,0.00,,2013-03-26 23:20:00,
2013-03-26 16:30:00,52.6,48.0,29.91,WSW,257,7.0,11.0,83,0.00,,,0.00,,2013-03-26 23:30:00,
2013-03-26 16:40:00,52.5,48.0,29.92,WSW,254,12.0,13.0,85,0.00,,,0.00,,2013-03-26 23:40:00,
2013-03-26 16:50:00,51.5,48.0,29.92,West,266,7.0,14.0,89,0.00,,,0.00,,2013-03-26 23:50:00,
2013-03-26 17:00:00,51.5,48.0,29.91,West,266,9.0,12.0,89,0.00,,,0.00,,2013-03-27 00:00:00,
2013-03-26 17:10:00,52.0,48.0,29.91,West,269,10.0,12.0,86,0.00,,,0.00,,2013-03-27 00:10:00,
2013-03-26 17:20:00,52.7,49.0,29.91,West,274,11.0,12.0,86,0.00,,,0.00,,2013-03-27 00:20:00,
2013-03-26 17:30:00,53.1,49.0,29.91,West,277,9.0,13.0,86,0.00,,,0.00,,2013-03-27 00:30:00,
2013-03-26 17:40:00,52.8,48.0,29.91,West,271,12.0,14.0,85,0.00,,,0.00,,2013-03-27 00:40:00,
2013-03-26 17:50:00,53.0,49.0,29.91,West,271,10.0,14.0,86,0.00,,,0.00,,2013-03-27 00:50:00,
2013-03-26 18:00:00,52.8,48.0,29.91,WNW,293,9.0,13.0,85,0.00,,,0.00,,2013-03-27 01:00:00,
2013-03-26 18:10:00,52.0,48.0,29.91,WNW,303,8.0,15.0,86,0.00,,,0.00,,2013-03-27 01:10:00,
2013-03-26 18:20:00,51.3,48.0,29.91,NW,307,15.0,16.0,88,0.00,,,0.00,,2013-03-27 01:20:00,
2013-03-26 18:30:00,50.9,48.0,29.91,West,276,13.0,16.0,89,0.00,,,0.00,,2013-03-27 01:30:00,
2013-03-26 18:40:00,50.1,47.0,29.91,WNW,294,16.0,20.0,90,0.00,,,0.00,,2013-03-27 01:40:00,
2013-03-26 18:50:00,49.7,47.0,29.91,WNW,286,13.0,16.0,91,0.00,,,0.00,,2013-03-27 01:50:00,
2013-03-26 19:00:00,49.2,47.0,29.92,WNW,289,15.0,20.0,92,0.00,,,0.00,,2013-03-27 02:00:00,
2013-03-26 19:10:00,48.6,47.0,29.92,WNW,284,11.0,18.0,93,0.00,,,0.00,,2013-03-27 02:10:00,
2013-03-26 19:20:00,48.3,47.0,29.92,WNW,282,17.0,22.0,94,0.00,,,0.00,,2013-03-27 02:20:00,
2013-03-26 19:30:00,48.1,47.0,29.92,WNW,295,18.0,25.0,95,0.00,,,0.00,,2013-03-27 02:30:00,
2013-03-26 19:40:00,47.9,47.0,29.92,WNW,289,18.0,22.0,95,0.00,,,0.00,,2013-03-27 02:40:00,
2013-03-26 19:50:00,47.9,47.0,29.92,WNW,295,13.0,23.0,95,0.00,,,0.00,,2013-03-27 02:50:00,
2013-03-26 20:00:00,47.8,47.0,29.92,West,277,15.0,22.0,96,0.00,,,0.00,,2013-03-27 03:00:00,
2013-03-26 20:10:00,47.7,47.0,29.93,West,271,18.0,19.0,96,0.00,,,0.00,,2013-03-27 03:10:00,
2013-03-26 20:20:00,47.6,47.0,29.93,WNW,290,15.0,19.0,96,0.00,,,0.00,,2013-03-27 03:20:00,
2013-03-26 20:30:00,47.6,47.0,29.93,WNW,289,12.0,17.0,96,0.00,,,0.00,,2013-03-27 03:30:00,
2013-03-26 20:40:00,47.6,47.0,29.93,WNW,292,13.0,13.0,96,0.00,,,0.00,,2013-03-27 03:40:00,
2013-03-26 20:50:00,47.7,47.0,29.93,West,273,12.0,18.0,96,0.00,,,0.00,,2013-03-27 03:50:00,
2013-03-26 21:00:00,47.5,46.0,29.94,West,276,15.0,16.0,96,0.00,,,0.00,,2013-03-27 04:00:00,
2013-03-26 21:10:00,47.6,47.0,29.94,WNW,286,12.0,18.0,97,0.00,,,0.00,,2013-03-27 04:10:00,
2013-03-26 21:20:00,47.6,47.0,29.94,West,279,12.0,15.0,97,0.00,,,0.00,,2013-03-27 04:20:00,
2013-03-26 21:30:00,47.6,47.0,29.95,WNW,291,6.0,13.0,97,0.00,,,0.00,,2013-03-27 04:30:00,
2013-03-26 21:40:00,47.7,47.0,29.95,WNW,299,6.0,9.0,97,0.00,,,0.00,,2013-03-27 04:40:00,
2013-03-26 21:50:00,47.7,47.0,29.95,NW,306,6.0,9.0,97,0.00,,,0.00,,2013-03-27 04:50:00,
2013-03-26 22:00:00,47.5,47.0,29.95,NW,306,4.0,5.0,97,0.00,,,0.00,,2013-03-27 05:00:00,
2013-03-26 22:10:00,47.3,47.0,29.95,NW,305,1.0,6.0,97,0.00,,,0.00,,2013-03-27 05:10:00,
2013-03-26 22:20:00,47.5,47.0,29.95,NW,305,1.0,3.0,97,0.00,,,0.00,,2013-03-27 05:20:00,
2013-03-26 22:30:00,47.1,46.0,29.95,NW,305,0.0,1.0,97,0.00,,,0.00,,2013-03-27 05:30:00,
2013-03-26 22:40:00,47.1,46.0,29.95,NW,305,0.0,2.0,97,0.00,,,0.00,,2013-03-27 05:40:00,
2013-03-26 22:50:00,47.2,46.0,29.95,NW,305,0.0,1.0,97,0.00,,,0.00,,2013-03-27 05:50:00,
2013-03-26 23:00:00,47.3,47.0,29.95,NW,305,2.0,2.0,97,0.00,,,0.00,,2013-03-27 06:00:00,
2013-03-26 23:10:00,47.4,47.0,29.95,NW,304,7.0,9.0,98,0.00,,,0.00,,2013-03-27 06:10:00,
2013-03-26 23:20:00,47.8,47.0,29.95,SSW,202,6.0,9.0,98,0.00,,,0.00,,2013-03-27 06:20:00,
2013-03-26 23:30:00,47.7,47.0,29.95,SSW,204,6.0,8.0,98,0.00,,,0.00,,2013-03-27 06:30:00,
2013-03-26 23:40:00,47.6,47.0,29.95,SSW,202,5.0,7.0,98,0.00,,,0.00,,2013-03-27 06:40:00,
2013-03-26 23:50:00,47.6,47.0,29.95,SSW,211,2.0,7.0,98,0.00,,,0.00,,2013-03-27 06:50:00,